SCP
3 3 3 4 3 4 5 4 5 3 2 3 3 4 4 3 2 1 1 1 1 0
2 2 2 3 3 3 4 4 4 4 3 3 5 4 4 2 2 1 1 1 1 1
1 2 2 1 2 3 4 4 4 5 5 5 4 3 2 2 2 1 1 1 2 2
1 1 2 2 2 1 2 2 3 3 3 3 2 2 2 2 1 1 1 1 1 1
0 1 1 2 2 2 1 1 2 2 2 2 2 1 1 1 1 1 1 0 1 1
0 -0 0 1 1 2 2 0 1 1 1 2 1 1 1 1 0 0 0 0 0 1
0 0 0 0 0 0 1 1 0 0 1 1 1 0 1 1 0 1 1 0 0 0
0 0 0 0 0 0 0 0 1 1 1 1 1 1 0 1 1 1 0 0 0 0
0 0 0 0 0 0 0 0 0 0 1 1 1 0 0 0 1 1 1 0 0 0
0 0 0 0 0 0 1 1 1 0 0 0 1 0 0 0 0 0 0 1 1 1
0 0 0 0 0 0 1 1 1 1 0 0 -0 0 0 0 0 0 0 0 0 0
0 0 0 0 1 0 0 1 1 1 1 1 0 0 0 0 0 0 0 0 0 0
0 0 0 0 1 1 0 0 0 0 0 1 1 0 -0 -0 -0 0 0 0 0 0
0 0 0 0 0 1 1 0 1 0 1 0 0 0 0 0 0 0 -0 0 0 0
Wind_Speed_500mb
14 20 28 40 44 47 37 37 52 50 37 42 55 54 60 72 69 62 58 62 61 55
26 21 11 27 35 41 48 42 46 47 45 43 49 56 64 69 67 64 62 64 68 66
25 30 25 21 25 28 28 36 43 48 48 51 47 53 57 62 66 67 67 67 68 66
31 27 29 28 23 22 32 25 30 39 48 52 46 48 47 49 49 54 58 66 67 67
34 26 28 26 32 31 24 31 33 35 36 36 33 35 39 45 47 45 49 53 65 63
28 30 26 23 17 23 32 25 31 39 37 34 35 40 45 41 44 44 43 42 44 55
21 25 27 27 21 15 12 26 23 23 42 45 42 40 41 41 40 39 42 39 47 52
31 21 22 30 22 22 14 12 17 22 21 35 40 38 38 37 43 45 43 38 47 56
33 31 29 24 28 21 24 17 13 10 19 21 26 38 46 42 39 49 43 34 37 44
34 35 37 32 30 31 28 21 16 15 17 21 27 26 23 38 44 54 56 46 42 43
38 38 40 41 37 40 40 31 20 19 18 28 26 29 34 32 34 46 57 62 70 75
42 45 44 43 47 32 29 38 32 23 19 32 29 31 38 40 41 44 46 53 64 63
44 50 54 47 41 42 33 42 41 27 31 32 35 28 43 43 45 46 44 53 52 58
48 47 50 60 52 50 51 49 44 43 40 36 31 33 36 43 47 58 58 57 52 53
Wind_Direction_500mb
17 249 242 239 246 241 239 243 252 259 254 252 236 229 225 228 233 240 233 235 240 234
22 354 319 249 241 244 245 247 238 243 249 249 228 228 228 233 238 241 243 244 244 245
21 8 358 330 277 256 250 250 248 244 241 237 239 242 241 241 242 243 247 243 245 242
3 2 358 1 341 303 260 247 242 242 247 229 249 255 246 244 240 251 248 246 247 248
340 359 358 359 358 347 317 263 256 250 241 243 241 247 239 241 241 247 256 260 251 249
339 332 335 338 342 352 346 321 268 243 213 216 244 251 246 255 260 258 256 257 246 244
298 324 328 330 327 314 341 338 323 269 244 254 255 246 251 254 260 252 257 255 236 241
311 293 298 310 318 330 316 300 326 325 284 262 261 252 242 247 249 251 258 261 244 239
299 301 291 285 295 318 308 313 310 290 311 307 287 269 253 247 238 253 260 264 255 242
296 291 287 280 273 271 285 298 310 327 311 294 297 302 289 274 261 249 248 248 252 255
290 288 284 283 280 273 276 277 291 306 331 319 319 307 296 290 286 272 264 261 258 264
291 288 294 285 285 283 265 287 283 296 308 300 304 307 296 287 285 287 288 271 262 263
299 289 282 286 284 282 280 267 276 270 271 284 295 289 285 289 293 275 281 289 279 263
289 297 289 279 281 277 278 263 261 267 269 271 282 287 286 294 294 292 286 286 277 278
Wind_Speed_850mb
14 20 28 40 44 47 37 37 52 50 37 42 55 54 60 72 69 62 58 62 61 55
26 21 11 27 35 41 48 42 46 47 45 43 49 56 64 69 67 64 62 64 68 66
25 30 25 21 25 28 28 36 43 48 48 51 47 53 57 62 66 67 67 67 68 66
31 27 29 28 23 22 32 25 30 39 48 52 46 48 47 49 49 54 58 66 67 67
34 26 28 26 32 31 24 31 33 35 36 36 33 35 39 45 47 45 49 53 65 63
28 30 26 23 17 23 32 25 31 39 37 34 35 40 45 41 44 44 43 42 44 55
21 25 27 27 21 15 12 26 23 23 42 45 42 40 41 41 40 39 42 39 47 52
31 21 22 30 22 22 14 12 17 22 21 35 40 38 38 37 43 45 43 38 47 56
33 31 29 24 28 21 24 17 13 10 19 21 26 38 46 42 39 49 43 34 37 44
34 35 37 32 30 31 28 21 16 15 17 21 27 26 23 38 44 54 56 46 42 43
38 38 40 41 37 40 40 31 20 19 18 28 26 29 34 32 34 46 57 62 70 75
42 45 44 43 47 32 29 38 32 23 19 32 29 31 38 40 41 44 46 53 64 63
44 50 54 47 41 42 33 42 41 27 31 32 35 28 43 43 45 46 44 53 52 58
48 47 50 60 52 50 51 49 44 43 40 36 31 33 36 43 47 58 58 57 52 53
Wind_Direction_850mb
17 249 242 239 246 241 239 243 252 259 254 252 236 229 225 228 233 240 233 235 240 234
22 354 319 249 241 244 245 247 238 243 249 249 228 228 228 233 238 241 243 244 244 245
21 8 358 330 277 256 250 250 248 244 241 237 239 242 241 241 242 243 247 243 245 242
3 2 358 1 341 303 260 247 242 242 247 229 249 255 246 244 240 251 248 246 247 248
340 359 358 359 358 347 317 263 256 250 241 243 241 247 239 241 241 247 256 260 251 249
339 332 335 338 342 352 346 321 268 243 213 216 244 251 246 255 260 258 256 257 246 244
298 324 328 330 327 314 341 338 323 269 244 254 255 246 251 254 260 252 257 255 236 241
311 293 298 310 318 330 316 300 326 325 284 262 261 252 242 247 249 251 258 261 244 239
299 301 291 285 295 318 308 313 310 290 311 307 287 269 253 247 238 253 260 264 255 242
296 291 287 280 273 271 285 298 310 327 311 294 297 302 289 274 261 249 248 248 252 255
290 288 284 283 280 273 276 277 291 306 331 319 319 307 296 290 286 272 264 261 258 264
291 288 294 285 285 283 265 287 283 296 308 300 304 307 296 287 285 287 288 271 262 263
299 289 282 286 284 282 280 267 276 270 271 284 295 289 285 289 293 275 281 289 279 263
289 297 289 279 281 277 278 263 261 267 269 271 282 287 286 294 294 292 286 286 277 278